Retour au catalogue

STARLINK-37286

ActifCommunicationsVLEO
NORAD 68512·PAYLOAD·🇺🇸 United States

Lancé Mar 30, 2026 depuis Cape Canaveral Space Force Station

Loading…

Prochains Passages (prochaines 24 heures)

TLE

FraisSource: CelesTrak SupGP

Époque: Sep 14, 2026, 23:04 UTC

1 68512C 26068E   26257.96159722  .00033949  00000+0  10034-2 0  2571
2 68512  53.1596 319.4297 0001142  89.6025 220.3946 15.34361695    16

Suivez STARLINK-37286 en temps réel avec AllMySat

Download on the App Store